Regional Weather Roundup
Issued by NWS

Home | Current Version | Previous Version | Graphics & Text | Print | Product List | Glossary On
Versions: 1 2 3 4 5 6 7 8 9 10 11 12 13 14 15 16 17 18 19 20 21 22 23 24 25 26 27 28 29 30 31 32 33 34 35 36 37 38 39 40 41 42 43 44 45 46 47 48 49 50
000
ASUS43 KMKX 280810
RWRWI

WISCONSIN REGIONAL WEATHER ROUNDUP
NATIONAL WEATHER SERVICE MILWAUKEE/SULLIVAN WI
200 AM CST SAT FEB 28 2015

NOTE: "FAIR" INDICATES FEW OR NO CLOUDS BELOW 12,000 FEET WITH NO
SIGNIFICANT WEATHER AND/OR OBSTRUCTIONS TO VISIBILITY.

WIZ001-002-006>008-014>016-023>028-280900-
NORTHWEST WISCONSIN

CITY           SKY/WX    TMP DP  RH WIND       PRES   REMARKS
SUPERIOR ARPT  CLEAR      3  -4  70 SW5       30.49R WCI  -6
ASHLAND        CLEAR      3  -6  66 SW8       30.49R WCI -10
HAYWARD        CLEAR     -9 -16  71 CALM      30.48R
SIREN          CLEAR      2  -4  75 S5        30.50S WCI  -7
CUMBERLAND     CLEAR     -8 -11  84 S6        30.49S WCI -21
RICE LAKE      CLEAR     -6 -11  81 CALM      30.53R
CHETEK         CLEAR     -7 -11  84 CALM      30.53R
LADYSMITH      CLEAR     -5 -10  81 CALM      30.52R
EAU CLAIRE     CLEAR     -3  -8  79 S6        30.55S WCI -15
MENOMONIE      FAIR      -1  -6  79 SE3       30.55S
NEW RICHMOND   CLEAR      0  -4  82 S6        30.52S WCI -12
OSCEOLA        CLEAR     -1  -5  83 S8        30.55S WCI -16
$$

WIZ003>005-009-010-017-018-280900-
NORTH CENTRAL WISCONSIN

CITY           SKY/WX    TMP DP  RH WIND       PRES   REMARKS
MANITOWISH WTR CLEAR    -11 -17  77 S3        30.43S
ARBOR VITAE    CLEAR     -6 -12  77 CALM      30.44R
WOODRUFF       CLEAR     -6 -12  77 CALM      30.44R
RHINELANDER    CLEAR     -5  -9  83 W5        30.45R WCI -16
EAGLE RIVER    CLEAR     -6 -11  78 CALM      30.43S
LAND O LAKES   CLEAR    -17 -22  76 SW5       30.43R WCI -29
PHILLIPS       CLEAR     -9 -12  84 CALM      30.46R
TOMAHAWK       CLEAR    -14 -19  76 CALM      30.48S
MEDFORD        PTCLDY    -3  -7  82 SW5       30.48S WCI -14
MERRILL        CLEAR    -14 -20  76 CALM      30.50R
$$

WIZ029-030-035-036-043>047-280900-
CENTRAL WISCONSIN

CITY           SKY/WX    TMP DP  RH WIND       PRES   REMARKS
WAUSAU         CLEAR      0  -7  72 CALM      30.51R
MOSINEE        CLEAR      0  -8  71 W6        30.53R WCI -12
MARSHFIELD     PTCLDY    -3  -9  75 SW6       30.53R WCI -15
STEVENS POINT  CLEAR      0  -8  68 SW6       30.55S WCI -11
WAUPACA        CLEAR      3  -7  62 SW7       30.59R WCI  -9
WAUTOMA        CLEAR     -6 -12  75 CALM      30.60R
WISC RAPIDS    CLEAR     -2 -10  69 SW7       30.58R WCI -15
CAMP DOUGLAS   CLEAR     -3  -8  78 S1        30.58S
$$

WIZ011>013-019>022-031-037>040-048>050-280900-
NORTHEAST WISCONSIN

CITY           SKY/WX    TMP DP  RH WIND       PRES   REMARKS
ANTIGO         CLEAR     -4  -8  82 W5        30.48R WCI -15
SHAWANO        CLEAR      3  -6  65 CALM      30.57R
OCONTO         CLEAR      3  -6  65 SW6       30.57R WCI  -8
STURGEON BAY   CLEAR      7  -6  56 SW7       30.58R WCI  -5
GREEN BAY      CLEAR      4  -4  69 SW6       30.59R WCI  -7
MANITOWOC      CLEAR      6  -3  66 W8        30.60R WCI  -7
APPLETON       CLEAR      3  -6  66 SW8       30.57S WCI -10
CLINTONVILLE   CLEAR      3  -8  60 W5        30.57R WCI  -6
OSHKOSH        CLEAR      3  -6  66 W3        30.59R
$$

WIZ032>034-041-042-053>061-280900-
SOUTHWEST WISCONSIN

CITY           SKY/WX    TMP DP  RH WIND       PRES   REMARKS
LA CROSSE      CLEAR     -1  -7  75 SE3       30.62R
SPARTA         CLEAR    -12 -17  79 CALM      30.60S
VIROQUA        CLEAR     -4  -8  81 S7        30.54F WCI -18
BOSCOBEL       PTCLDY   -10 -16  74 CALM      30.65S
PRAIRIE DU CHI PTCLDY   -12 -18  73 SE3       30.64F
PLATTEVILLE    MOCLDY    -2  -7  78 CALM      30.60S
$$

WIZ056-057-062-063-064-067-068-280900-
SOUTH CENTRAL WISCONSIN

CITY           SKY/WX    TMP DP  RH WIND       PRES   REMARKS
REEDSBURG      CLEAR      0  -7  74 CALM      30.60S
BARABOO/DELLS  CLEAR      0  -8  71 CALM      30.59S
LONE ROCK      CLEAR    -12 -19  71 CALM      30.64S
MINERAL POINT  PTCLDY     1  -6  71 CALM      30.58F
MADISON        CLEAR     -2  -9  72 CALM      30.61S
MIDDLETON      CLEAR     -2 -10  69 CALM      30.61S
WATERTOWN      CLEAR     -2  -8  75 CALM      30.62R
MONROE         MOCLDY     0  -6  78 SW7       30.59S WCI -13
JANESVILLE     PTCLDY    -4  -9  77 CALM      30.64S
$$

WIZ051-052-058>065-066-070>072-280900-
SOUTHEAST WISCONSIN

CITY           SKY/WX    TMP DP  RH WIND       PRES   REMARKS
MILWAUKEE      CLEAR      3  -7  63 W7        30.64S WCI  -9
WAUKESHA       CLEAR      1  -8  66 SW5       30.63S WCI  -8
MILWAUKEE/TIMM CLEAR      3  -6  66 SW3       30.64S
RACINE         PTCLDY     0  -9  65 SW6       30.66S WCI -12
BURLINGTON     PTCLDY   -10 -14  80 SW3       30.64S
KENOSHA        PTCLDY    -7 -11  83 W6        30.65S WCI -20
FOND DU LAC    CLEAR      1  -7  68 SW5       30.60S WCI  -9
SHEBOYGAN      CLEAR      2  -7  66 SW8       30.61R WCI -12
WEST BEND      CLEAR      3  -6  66 W6        30.60S WCI  -8
JUNEAU         CLEAR     -2  -8  75 S7        30.61S WCI -15
$$

LSZ147-162-280900-
LAKE SUPERIOR

STATION/POSITION TIME  TEMP    WIND        PRES    WAVE
                       AIR SEA DIR/SP/G            HT/PER
                 (UTC) (F)     (DEG/KT/KT) (MB)    (FT/S)
DEVILS ISLAND    0800   10     230/ 16/ 19 1033.1R
PORT WING        0740    8     190/  8/ 10 1032.2R
SAXON HARBOR     0700    8     180/  4/  8 1032.5R
$$

LMZ867-665-643>646-280900-
LAKE MICHIGAN

STATION/POSITION TIME  TEMP    WIND        PRES    WAVE
                       AIR SEA DIR/SP/G            HT/PER
                 (UTC) (F)     (DEG/KT/KT) (MB)    (FT/S)
NORTHPORT PIER   0700    9     230/  4/  9 1034.2
SISTER BAY       0743    9     250/ 11/ 15   N/A
KEWAUNEE LAKESHO 0700    7     250/  8/ 12 1034.4R
SHEBOYGAN LAKESH 0800    7     250/ 13/ 15 1038.4R
PORT WASHINGTON  0700    7     270/  7/ 12 1037.6
MILWAUKEE LAKESH 0700    8     240/ 11/ 14   N/A
KENOSHA   LAKESH 0800    2     250/  5/  8 1037.9S
$$

TC  - TEMPERATURE IN CELSIUS
VSB - VISIBILITY IN STATUTE MILES
WCI - WIND CHILL INDEX
HX  - HEAT INDEX



USA.gov is the U.S. government's official web portal to all federal, state and local government web resources and services.